Preview of NWS' New Version of Forecast
This preview is not operational and should not be used for support decisions.

Regional Weather Roundup (RWR)

Issued by National Weather Service (NWS)

                            
000
ASUS44 KJAN 210310
RWRMS 

MISSISSIPPI HOURLY WEATHER ROUNDUP
NATIONAL WEATHER SERVICE JACKSON MS
1000 PM CDT SAT APR 20 2019

NOTE: "FAIR: INDICATES FEW OR NO CLOUDS BELOW 12,000 FEET WITH NO
SIGNIFICANT WEATHER AND/OR OBSTRUCTIONS TO VISIBILITY.

MSZ001>002-007>008-010>013-018>021-025>028-034>036-210400-
NORTHWEST MISSISSIPPI
  
CITY           SKY/WX    TMP DP  RH WIND       PRES   REMARKS
BATESVILLE       N/A     48  46  93 CALM      29.98R                  
CLARKSDALE     CLEAR     57  45  62 CALM      29.98R                  
CLEVELAND      FAIR      58  45  60 S5        29.98S                  
GREENWOOD      FAIR      51  46  83 CALM      30.00R                  
GREENVILLE     FAIR      56  45  66 SE5       29.98R                  
OLIVE BRANCH   CLEAR     54  39  58 SW5       29.95R                  
OXFORD         FAIR      46  41  81 CALM      29.99R                  
TUNICA           N/A     54  45  71 S3        29.98R                  
WINONA         FAIR      47  43  85 CALM      30.00S                  
$$

MSZ003>006-009-014>017-022>024-029>033-037>039-210400-
NORTHEAST MISSISSIPPI
  
CITY           SKY/WX    TMP DP  RH WIND       PRES   REMARKS
ABERDEEN       FAIR      46  46 100 CALM      29.99R                  
COLUMBUS AFB   FAIR      50  41  72 CALM      29.98R                  
CORINTH        FAIR      50  41  71 CALM      29.96R                  
GOLDN TRIANGLE FAIR      51  41  68 SW3       30.00R                  
STARKVILLE     FAIR      45  41  87 CALM      30.01R                  
TUPELO         FAIR      51  42  71 SW3       29.97R                  
$$

MSZ040-058-210400-
CENTRAL MISSISSIPPI
  
CITY           SKY/WX    TMP DP  RH WIND       PRES   REMARKS
JACKSON INTL   FAIR      49  42  77 CALM      30.03R                  
JACKSON HAWKNS FAIR      52  46  80 CALM      30.02R                  
MADISON        FAIR      48  43  81 CALM      30.02R                  
MERIDIAN KEY   FAIR      52  43  71 CALM      30.02R                  
MERIDIAN NAS   FAIR      54  38  54 CALM      30.02R                  
RAYMOND        FAIR      48  48 100 CALM      30.02S                  
VICKSBURG VKS  CLEAR     52  50  93 CALM      30.02S                  
$$

MSZ059>079-210400-
SOUTH MISSISSIPPI
  
CITY           SKY/WX    TMP DP  RH WIND       PRES   REMARKS
HATTIESBURG    FAIR      51  44  77 CALM      30.05R                  
LAUREL         CLEAR     50  44  82 CALM      30.04R                  
MCCOMB         FAIR      52  42  69 CALM      30.04R                  
NATCHEZ        FAIR      52  47  83 S5        30.04R                  
PINE BELT      FAIR      48  43  82 CALM      30.05R                  
$$

MSZ080>082-210400-
COASTAL MISSISSIPPI
  
CITY           SKY/WX    TMP DP  RH WIND       PRES   REMARKS
BILOXI         FAIR      58  44  58 NW3       30.03R                  
PASCAGOULA     FAIR      50  46  86 CALM      30.03R                  
GULFPORT       FAIR      54  45  71 CALM      30.03R                  
$$

LAZ007>009-015>016-023>026-210400-
NORTHEAST LOUISIANA
  
CITY           SKY/WX    TMP DP  RH WIND       PRES   REMARKS
BASTROP        FAIR      51  45  79 CALM      30.02R                  
TALLULAH/VBURG FAIR      59  51  75 CALM      30.02R                  
VIDALIA        FAIR      56  52  85 E3        30.03R                  
$$